Regional Weather Roundup
Issued by NWS

Home | Current Version | Previous Version | Text Only | Print | Product List | Glossary On
Versions: 1 2 3 4 5 6 7 8 9 10 11 12 13 14 15 16 17 18 19 20 21 22 23 24 25 26 27 28 29 30 31 32 33 34 35 36 37 38 39 40 41 42 43 44 45 46 47 48 49 50
000
ASUS43 KDTX 161001
RWRMI
MICHIGAN HOURLY REGIONAL WEATHER ROUNDUP
NATIONAL WEATHER SERVICE DETROIT/PONTIAC MI
600 AM EDT WED APR 16 2014

NOTE: "FAIR" INDICATES FEW OR NO CLOUDS BELOW 12,000 FEET WITH NO
SIGNIFICANT WEATHER AND/OR OBSTRUCTION TO VISIBILITY.

MIZ047>049-052>055-059>063-066>070-074>076-081>083-161100-
SOUTHEAST LOWER MICHIGAN

CITY           SKY/WX    TMP DP  RH WIND       PRES   REMARKS
ADRIAN         CLEAR     20  16  84 CALM      30.34R
ALMA           CLEAR     25  19  80 CALM      30.31R
ANN ARBOR      CLEAR     19  15  84 CALM      30.34R
BAD AXE        CLEAR     22  17  81 CALM      30.32R
CARO           CLEAR     19  17  93 CALM      30.32R
DETROIT CITY   CLEAR     25  15  66 CALM      30.35R
DETROIT        CLEAR     24  16  71 CALM      30.35R
FLINT          CLEAR     22  15  75 CALM      30.32R
GROSSE ILE     CLEAR     23  19  86 CALM      30.34R
HILLSDALE      CLEAR     20  17  88 CALM      30.31R
HOWELL         CLEAR     19  15  82 CALM      30.31R

CITY           SKY/WX    TMP DP  RH WIND       PRES   REMARKS
JACKSON        CLEAR     19  14  81 CALM      30.32R
LAMBERTVILLE   CLEAR     23  19  86 CALM      30.36R
LANSING        CLEAR     21  15  78 CALM      30.32R
LAPEER         FAIR      19  17  94 CALM      30.32R
MASON          CLEAR     21  17  86 S3        30.32R
MONROE         CLEAR     23  19  86 CALM      30.34R
MT. CLEMENS    CLEAR     19  16  87 SW2       30.33R
PONTIAC        CLEAR     20  13  74 CALM      30.30R
PORT HOPE        N/A     26  18  71 SW3       30.29R
PORT HURON     CLEAR     18  18 100 CALM      30.34R
TRI CITIES     CLEAR     25  16  68 W6        30.32R WCI  18
TROY           CLEAR     23  15  70 CALM      30.34R
SAGINAW HB     CLEAR     27  19  74 CALM      30.32R
YPSILANTI      FAIR      24  14  65 CALM      30.35R
$$
MIZ043>046-050>051-056>058-064>065-071>073-077>080-161100-
SOUTHWEST LOWER MICHIGAN

CITY           SKY/WX    TMP DP  RH WIND       PRES   REMARKS
BATTLE CREEK   FAIR      22  14  71 S5        30.31R WCI  16
BENTON HARBOR  CLEAR     24  16  71 SE7       30.30R WCI  16
BIG RAPIDS     CLEAR     20  17  87 CALM      30.28R
COLDWATER      CLEAR     21  19  91 CALM      30.32R
FREMONT        FAIR      22  18  85 SE3       30.28S
HOLLAND        CLEAR     26  18  71 SE6       30.31R WCI  19
GRAND RAPIDS   CLEAR     22  16  78 S6        30.30R WCI  14
IONIA          FAIR      23  19  87 CALM      30.30R
KALAMAZOO      CLEAR     25  15  66 S5        30.31R WCI  19
LUDINGTON      MOCLDY    27  21  79 S5        30.29R WCI  22
MARSHALL       CLEAR     19  17  90 CALM      30.31R
MOUNT PLEASANT CLEAR     22  17  81 CALM      30.30R
MUSKEGON       CLEAR     23  16  74 SE6       30.30R WCI  16
SOUTH HAVEN    CLEAR     25  15  65 SE5       30.30R WCI  19
$$
MIZ016>042-161100-
NORTHERN LOWER MICHIGAN

CITY           SKY/WX    TMP DP  RH WIND       PRES   REMARKS
ALPENA         CLEAR     13  12  96 CALM      30.29R
BEAVER ISLAND  CLEAR      9   7  91 CALM      30.28R
BELLAIRE       CLEAR     21  19  93 CALM      30.28R
CADILLAC       CLEAR     17  14  88 SW5       30.24R WCI  10
CHARLEVOIX     CLEAR     14  12  93 E3        30.31R
FRANKFORT      CLEAR     20  18  88 CALM      30.27R
GAYLORD        CLOUDY    18  17  96 CALM      30.24R
GRAYLING       CLOUDY    15  13  93 CALM      30.27R
HARBOR SPRINGS CLEAR     11   9  89 CALM      30.28R
HOUGHTON LAKE  CLEAR     19  15  84 CALM      30.27R
MANISTEE       MOCLDY    25  19  80 E3        30.28R
OSCODA         CLEAR     17  12  80 W5        30.30R WCI  10
PELLSTON       CLOUDY     4  -1  80 CALM      30.29R
ROGERS CITY    CLEAR     15  13  93 SW5       30.30R WCI   8
TRAVERSE CITY  CLEAR     18  14  84 S3        30.27R
$$
MIZ007>008-015-161100-
EASTERN UPPER MICHIGAN

CITY           SKY/WX    TMP DP  RH WIND       PRES   REMARKS
KINROSS        CLEAR     12  10  92 SW6       30.26R WCI   3
MACKINAC ISLAN CLEAR     14  10  84 S6        30.27R WCI   5
NEWBERRY       CLEAR      3   1  89 S6        30.24R WCI  -8
S. S. MARIE    CLEAR      9   4  80 CALM      30.26R
$$
MIZ004>006-011>014-085-161100-
CENTRAL UPPER MICHIGAN

CITY           SKY/WX    TMP DP  RH WIND       PRES   REMARKS
MANISTIQUE     CLEAR      5   2  86 CALM      30.26R
ESCANABA       MOCLDY    10   5  79 CALM      30.24R
MENOMINEE      CLEAR     18  16  93 CALM      30.23S
SAWYER-GWINN   CLEAR     -1  -6  82 CALM      30.20R
$$
MIZ001>003-009>011-084-161100-
WESTERN UPPER MICHIGAN

CITY           SKY/WX    TMP DP  RH WIND       PRES   REMARKS
IRON MOUNTAIN  CLEAR      8   4  83 CALM      30.19R
HOUGHTON       CLEAR     17  -1  45 CALM      30.17R
COPPER HARBOR    N/A     16   4  59 W6        30.20R WCI   7
IRONWOOD       CLOUDY    21   1  42 SE8       30.11S WCI  12
$$

ABBREVIATIONS USED IN REMARKS
   TC - TEMPERATURE IN CELSIUS
  WCI - WIND CHILL INDEX
   HX - HEAT INDEX
  VSB - VISIBILITY




USA.gov is the U.S. government's official web portal to all federal, state and local government web resources and services.